Showing default

QIANFAN-21, 61554

Orbit data source: Space-Track

QIANFAN-21, 61554 is a Chinese payload satellite in LEO that was launched on Tue, 15 Oct 2024 UTC via a CHANG ZHENG 6A launch vehicle from the Taiyaun Space Center, China (TSC). Payloads include a variety of satellites, spacecraft, and rockets equipped with specific instruments for various scientific and technological missions. These include communications satellites like Starlink; space stations such as the ISS; scientific satellites like the Hubble; Earth observation satellites from companies like Planet Labs, Umbra, and HawkEye 360; GPS; miniature CubeSats for education and research; and military/defense satellites.

Loading next visibility...
QIANFAN-21 details
Identifier
61554, 2024-185C
Orbit
LEO
Last TLE update12 hours ago
Origin
Flag of CNYUANX (CN / PRC)
ManufacturerGESIH/SECM
MissionOperational Commercial Communications
Bus & MotorQIANFAN, Unknown motor
Mass300 kg wet, ~300 kg dry
Launch date (UTC)
2024-10-15 (4 months ago)
Launch vehicle
CHANG ZHENG 6A
Launch site
Taiyaun Space Center, China (TSC)
Object type
Payload
Rocket body
Debris
Shape & HBRBox + 1 Pan, 10 m
Radar Cross Section13.200 m², Large (>1 m²)

Expand to show TLE details & history

TLE from 12 hours ago
0 QIANFAN-21
1 61554U 24185C   25035.79408877  .00001438  00000-0  64472-3 0  9998
2 61554  88.9804 113.3408 0008669 297.3044  62.7264 14.21999348 25776
Epoch: 2025-02-04T19:03Z
Definitive object data (Epoch: 2025-02-04T19:03:29.269Z)
Latitude-0.00004°
Longitude52.27458°
Altitude818.8 km
Speed7.445 km/s
True Right ascension07h 33m 21s
True Declination0° 00' 00"
Sunlit
Object was in full shadow at TLE epoch
Visualization TLE readout
Latitude-28.98519°
Longitude51.65618°
Altitude824.462 km
Speed7.442 km/s
Apparent Right ascension04h 36m 20s
Apparent Declination-72° 57' 37"
Sunlit
Object is in full shadow
Visualization observer readout
Local Sidereal Time08:46:54
Azimuth197.614° SSW
Elevation-30.678°
Doppler factor1
Orbital elements
Apogee altitude821.784 km
Perigee altitude809.311 km
Semi-major axis7,193.685 km
Eccentricity0.0008669
Inclination88.9804°
RAAN113.3408°
Arg. of periapsis297.3044°
True anomaly62.81474°
Mean anomaly62.7264°
Eccentric anomaly62.77057°
Mean motion3.55726 °/min
BSTAR0.00064472
Orbital period101.2 mins
Loading maneuver chart data...
Loading historical data...
Loading historical data...
Loading historical data...
Loading historical data...
Loading historical data...
Loading historical data...
Loading historical data...

QIANFAN-21 Visibility forecast

Observer location: undefined°, undefined

Span
Click to sort rows by Start time (UTC) header in descending order
Start Az.
Max El. time (UTC)
Max El. Az.
Max El.
End time (UTC)
End Az.
4 mins2025-02-05 07:02:41.191Z262.177° W2025-02-05 07:04:41.191Z285.512° WNW13.029°2025-02-05 07:06:41.191Z308.208° NW
4 mins2025-02-05 15:56:41.191Z56.506° ENE2025-02-05 15:58:41.191Z80.56° E13.918°2025-02-05 16:00:41.191Z103.712° ESE
8 mins2025-02-05 17:36:41.191Z350.91° N2025-02-05 17:39:41.191Z305.528° NW41.694°2025-02-05 17:44:41.191Z194.46° SSW
8 mins2025-02-06 04:57:41.191Z150.814° SSE2025-02-06 05:01:41.191Z73.353° E36.672°2025-02-06 05:05:41.191Z13.812° NNE
4 mins2025-02-06 06:40:41.191Z249.969° W2025-02-06 06:42:41.191Z276.773° WNW18.405°2025-02-06 06:44:41.191Z304.886° NW
|